Tracking 22100 objects as of 20-Jan-2021
HD Live streaming from Space Station
objects crossing your sky now

EKRAN 6

Track EKRAN 6 now!
EKRAN 6 is classified as:


NORAD ID: 12120
Int'l Code: 1980-104A
Perigee: 35,760.0 km
Apogee: 35,830.9 km
Inclination: 10.8 °
Period: 1,436.2 minutes
Semi major axis: 42166 km
RCS: 6.3095 m2 (large)
Launch date: December 26, 1980
Source: Commonwealth of Independent States (former USSR) (CIS)
Launch site: TYURATAM MISSILE AND SPACE COMPLEX (TTMTR)
aabbcc
Your satellite tracking list
Your tracking list is empty




NASA's NSSDC Master Catalog

Two Line Element Set (TLE):
1 12120U 80104A   21019.59790302 -.00000281  00000-0  00000-0 0  9999
2 12120  10.8244 311.2587 0008406  27.5615  93.4148  1.00265588107617
Source of the keplerian elements: AFSPC